XW-2F                   
1 40910U 15049M   21101.79376037  .00001447  00000-0  72641-4 0  9990
2 40910  97.4736 107.7572 0015667  47.4529 126.6984 15.18813568307605
XW-2B                   
1 40911U 15049N   21101.75004505  .00001107  00000-0  59592-4 0  9998
2 40911  97.4860 105.4048 0015455  60.5659 112.4314 15.16828905307375
KAITUO 1B               
1 40912U 15049P   21101.75385388  .00001695  00000-0  78662-4 0  9991
2 40912  97.4473 112.0729 0015143  23.1689  62.3428 15.21323095308059
TIANWANG 1A (TW-1A)     
1 40928U 15051D   21101.71603214  .00004217  00000-0  90703-4 0  9991
2 40928  97.0830 128.2317 0009996 165.6034 287.7480 15.45140290311387
LAPAN-A2                
1 40931U 15052B   21096.27560241  .00000688  00000-0  67753-5 0  9990
2 40931   5.9971  47.1236 0012603  98.1150 262.0629 14.76669016298618
E-ST@R-II               
1 41459U 16025D   21101.79197430  .00000756  00000-0  41578-4 0  9999
2 41459  98.1290 234.0763 0159662 287.3551  71.0265 15.07702161272371
AAUSAT 4                
1 41460U 16025E   21101.82130202  .00002545  00000-0  12332-3 0  9992
2 41460  98.1286 237.6536 0147171 271.8770  86.5603 15.10594170272659
NUSAT-1 (FRESCO)        
1 41557U 16033B   21101.85526954  .00002049  00000-0  74880-4 0  9990
2 41557  97.3909 196.1900 0014672 109.4812 346.9872 15.29162785271355
BEESAT-4                
1 41619U 16040W   21101.61333583  .00002133  00000-0  87687-4 0  9998
2 41619  97.2771 159.5638 0010178 198.7039 161.3827 15.25196304254822
CAS-2T & KS-1Q          
1 41847U 16066G   21101.61732569  .00000142  00000-0  30899-4 0  9997
2 41847  98.6086 160.4436 0366286  59.9862 303.7141 14.38172431232276
NAYIF-1 (EO-88)         
1 42017U 17008BX  21101.43741435  .00002284  00000-0  86728-4 0  9997
2 42017  97.3214 170.2337 0005674   4.1687 355.9599 15.27823859231026
ZHUHAI-1 02 (CAS-4B)    
1 42759U 17034B   21101.69912995  .00000413  00000-0  38248-4 0  9994
2 42759  43.0169 188.0565 0007746 105.5623  24.8251 15.10149115211050
ZHUHAI-1 01 (CAS-4A)    
1 42761U 17034D   21101.62953873  .00000402  00000-0  37467-4 0  9990
2 42761  43.0173 187.5410 0008105 107.0866  33.5132 15.10230256211048
MAX VALIER SAT          
1 42778U 17036P   21101.44169528  .00001381  00000-0  60817-4 0  9998
2 42778  97.2631 152.2290 0013374  58.3524 301.9016 15.23395988211089
RADFXSAT (FOX-1B)       
1 43017U 17073E   21100.97233093  .00000532  00000-0  46151-4 0  9994
2 43017  97.7118   7.6276 0255799 160.2195 200.9161 14.79421466183149
FOX-1D (AO-92)          
1 43137U 18004AC  21101.47697389  .00001594  00000-0  66669-4 0  9995
2 43137  97.4106 176.1897 0010563  88.5679 271.6768 15.25022520180453
DIWATA-2B               
1 43678U 18084H   21101.77905826  .00000438  00000-0  49194-4 0  9994
2 43678  97.9119 226.7566 0008389 272.2748  87.7532 14.91731945133496
ES'HAIL 2               
1 43700U 18090A   21101.23689485  .00000134  00000-0  00000-0 0  9990
2 43700   0.0241 210.0747 0002348 206.4139 254.2581  1.00266565  8697
FOX-1CLIFF (AO-95)      
1 43770U 18099N   21101.13037632  .00000554  00000-0  55429-4 0  9991
2 43770  97.6695 172.7909 0013001 283.6223  76.3549 14.95253844128393
ITASAT 1                
1 43786U 18099AE  21101.46443056  .00000484  00000-0  48727-4 0  9990
2 43786  97.6713 173.7490 0013640 274.7712  85.1952 14.95557069128471
JY1SAT (JO-97)          
1 43803U 18099AX  21101.43902845 -.00000030  00000-0  24265-5 0  9993
2 43803  97.6678 173.4847 0013578 275.3996  84.5676 14.95792026128475
UWE-4                   
1 43880U 18111E   21101.53449748  .00000316  00000-0  32644-4 0  9997
2 43880  97.6904  10.3982 0011664 334.2994  25.7647 14.96792293125073
PSAT2 (NO-104)          
1 44354U 19036R   21101.60509144  .00015114  00000-0  20228-3 0  9992
2 44354  28.5304 212.1891 0331823 272.1132  84.1502 15.11824564 98842
BRICSAT2 (NO-103)       
1 44355U 19036S   21101.51355646  .00027946  00000-0  32108-3 0  9995
2 44355  28.5262 177.8742 0277960 328.1040  30.2996 15.25774717 99185
JAISAT-1                
1 44419U 19038F   21101.34213827  .00001161  00000-0  68162-4 0  9994
2 44419  97.5820  66.3296 0021008 179.1956 180.9312 15.13566662 97647
DUCHIFAT-3              
1 44854U 19089C   21101.47031036  .00000402  00000-0  38582-4 0  9997
2 44854  36.9652 136.7349 0009260 315.7808  44.2210 14.99413728 73045
RS-44 & BREEZE-KM R/B   
1 44909U 19096E   21101.38979686  .00000039  00000-0  11968-3 0  9992
2 44909  82.5218 157.3755 0216302 249.7803 107.9923 12.79709432 60263
ORBITAL FACTORY 2 (OF-2)
1 45113U 19071C   21101.56729056  .00002877  00000-0  93662-4 0  9991
2 45113  51.6440   1.7048 0012707  54.2298 305.9864 15.35265964 66893
HUSKYSAT-1 (HO-107)     
1 45119U 19071J   21101.19005719  .00003396  00000-0  10835-3 0  9996
2 45119  51.6437   2.9333 0012009  49.7972 310.4059 15.35328599 66833
BY70-2                  
1 45857U 20042B   21101.84498235  .00001106  00000-0  16466-3 0  9999
2 45857  97.9860 178.2867 0012684  73.9218 286.3384 14.76837037 41713
SALSAT                  
1 46495U 20068K   21101.63884040  .00001100  00000-0  85267-4 0  9996
2 46495  97.6875  39.5490 0016179 301.0711  58.8928 15.03401991 29294
BY70-3                  
1 46839U 20079N   21101.82002825  .00002917  00000-0  93180-4 0  9994
2 46839  97.2441 177.0054 0008931  87.3333 344.4257 15.33224578 23993
RADFXSAT-2 (AO-109)     
1 47311U 21002C   21101.59324607  .00000593  00000-0  38119-4 0  9995
2 47311  60.6857 181.4447 0025850   7.9992 352.1501 15.21435984 12692
UVSQ-SAT                
1 47438U 21006AB  21101.58741464  .00000991  00000-0  59752-4 0  9990
2 47438  97.4940 163.9905 0011903 335.8588  24.2083 15.12984851 11946
